Location: Castrojimeno
(41.3966°N, 3.8473°W)
Time: 11:46:01
(UTC+00:00)

Gbstr 26 Del rocket - Pass Details

Date: 15 May 2026
Orbit: 490 x 1215 km, 51.8° (Epoch: 6 June)

Event Time Altitude Azimuth Distance (km) Brightness Sun altitude
Rises 20:24:11 0° 303° (WNW) 3,347 9.2 -9.9°
Reaches altitude 10° 20:26:55 10° 299° (WNW) 2,286 7.5 -10.3°
Maximum altitude 20:31:59 54° 224° (SW) 795 3.6 -11.1°
Enters shadow 20:35:26 15° 149° (SSE) 1,615 4.6 -11.6°
